Osceola, WI

6:01 AM CDT on July 22, 2017 (GMT -0500)
Simenstad Municipal

Weather History for KOEO - December, 2013

Change the Weather History Date:

Monday, December 2, 2013

  Actual Average (KANE) Record (KANE)
Temperature  
Mean Temperature 30 °F -  
Max Temperature 36 °F 33 °F 69 °F (2013)
Min Temperature 25 °F 19 °F 5 °F (1996)
Degree Days  
Heating Degree Days 34    
Moisture  
Dew Point 30 °F    
Average Humidity 94    
Maximum Humidity 100    
Minimum Humidity 88    
Precipitation  
Precipitation 0.13 in - - ()
Sea Level Pressure  
Sea Level Pressure 29.75 in    
Wind  
Wind Speed 7 mph (ESE)    
Max Wind Speed 18 mph    
Max Gust Speed 22 mph    
Visibility 5 miles    
Events Snow    
Averages and records for this station are not official NWS values.
T = Trace of Precipitation, MM = Missing Value Source: NWS Daily Summary

Daily Weather History Graph

Daily Weather History Graph

Search for Another Location

Airport or City:

Trip Planner

Search our weather history database for the weather conditions in past years. The results will help you decide how hot, cold, wet, or windy it might be!

Date:

Astronomy

Dec. 02, 2013 Rise Set
Actual Time 7:31 AM CST 4:29 PM CST
Civil Twilight 6:57 AM CST 5:02 PM CST
Nautical Twilight 6:20 AM CST 5:39 PM CST
Astronomical Twilight 5:45 AM CST 6:15 PM CST
Moon 6:55 AM CST (12/2) 4:34 PM CST (12/2)
Length of Visible Light 10h 04m
Length of Day
8h 57m
Waning Crescent, 0% of the Moon is Illuminated
Dec 2
Waning Crescent
Dec 2
New
Dec 9
First Quarter
Dec 17
Full
Dec 25
Last Quarter

Hourly Weather History & Observations

Time (CST) Temp. Windchill Dew Point Humidity Pressure Visibility Wind Dir Wind Speed Gust Speed Precip Events Conditions
12:15 AM 25.7 °F 21.5 °F 23.9 °F 93% 29.95 in 7.0 mi East 3.5 mph - N/A   Overcast
12:35 AM 25.7 °F - 24.3 °F 94% 29.94 in 7.0 mi Calm Calm - N/A   Overcast
12:55 AM 26.6 °F - 24.8 °F 93% 29.94 in 7.0 mi Calm Calm - N/A   Overcast
1:15 AM 26.6 °F 21.2 °F 24.8 °F 93% 29.94 in 7.0 mi East 4.6 mph - N/A   Overcast
1:35 AM 26.4 °F 19.8 °F 24.6 °F 93% 29.93 in 7.0 mi ESE 5.8 mph - N/A   Overcast
1:55 AM 26.6 °F - 24.3 °F 91% 29.93 in 7.0 mi Calm Calm - N/A   Overcast
2:15 AM 25.7 °F 19.0 °F 23.9 °F 93% 29.92 in 7.0 mi ESE 5.8 mph - N/A   Overcast
2:35 AM 26.6 °F 18.2 °F 25.2 °F 94% 29.91 in 7.0 mi ESE 8.1 mph - N/A   Overcast
2:55 AM 27.7 °F 23.8 °F 25.3 °F 91% 29.91 in 10.0 mi East 3.5 mph - N/A   Overcast
3:15 AM 27.9 °F 22.6 °F 25.7 °F 92% 29.90 in 10.0 mi ESE 4.6 mph - N/A   Overcast
3:35 AM 27.9 °F 24.0 °F 25.7 °F 92% 29.89 in 10.0 mi ESE 3.5 mph - N/A   Overcast
3:55 AM 28.2 °F 22.0 °F 25.7 °F 90% 29.88 in 10.0 mi East 5.8 mph - N/A   Overcast
4:15 AM 28.4 °F 20.4 °F 26.1 °F 91% 29.87 in 10.0 mi ESE 8.1 mph - N/A   Overcast
4:35 AM 28.8 °F 21.7 °F 26.1 °F 90% 29.86 in 10.0 mi ESE 6.9 mph - N/A   Overcast
4:55 AM 28.9 °F 23.9 °F 26.2 °F 90% 29.86 in 10.0 mi ESE 4.6 mph - N/A   Overcast
5:15 AM 28.8 °F 21.7 °F 26.1 °F 90% 29.85 in 10.0 mi ESE 6.9 mph - N/A   Overcast
5:35 AM 29.1 °F 22.1 °F 26.4 °F 90% 29.83 in 10.0 mi ESE 6.9 mph - N/A   Overcast
5:55 AM 29.3 °F 22.3 °F 26.6 °F 90% 29.83 in 7.0 mi ESE 6.9 mph - N/A Snow Light Snow
6:15 AM 28.9 °F 21.1 °F 26.6 °F 91% 29.82 in 7.0 mi ESE 8.1 mph - N/A   Mostly Cloudy
6:35 AM 29.3 °F 21.5 °F 27.1 °F 92% 29.81 in 7.0 mi ESE 8.1 mph - N/A   Overcast
6:55 AM 30.0 °F 25.2 °F 27.1 °F 89% 29.82 in 10.0 mi SE 4.6 mph - N/A   Overcast
7:15 AM 30.2 °F 24.3 °F 27.5 °F 90% 29.82 in 7.0 mi ESE 5.8 mph - N/A   Overcast
7:35 AM 30.6 °F 22.4 °F 27.7 °F 89% 29.82 in 5.0 mi SE 9.2 mph - N/A Snow Light Snow
7:55 AM 30.0 °F 22.4 °F 28.0 °F 92% 29.81 in 2.5 mi SE 8.1 mph - N/A Snow Light Snow
8:15 AM 30.2 °F 23.4 °F 28.4 °F 93% 29.81 in 4.0 mi SE 6.9 mph - N/A Snow Light Snow
8:35 AM 30.2 °F 24.3 °F 28.9 °F 95% 29.81 in 4.0 mi ESE 5.8 mph - N/A Snow Light Snow
8:55 AM 30.2 °F 22.6 °F 29.1 °F 96% 29.80 in 2.5 mi ESE 8.1 mph - N/A Snow Light Snow
9:15 AM 30.4 °F 22.9 °F 29.5 °F 96% 29.79 in 1.8 mi ESE 8.1 mph - N/A Snow Light Snow
9:35 AM 30.6 °F 23.1 °F 29.8 °F 97% 29.79 in 1.5 mi ESE 8.1 mph - N/A Snow Light Snow
9:55 AM 31.1 °F 23.7 °F 30.4 °F 97% 29.78 in 2.0 mi ESE 8.1 mph - N/A Snow Light Snow
10:15 AM 31.6 °F 23.7 °F 30.6 °F 96% 29.78 in 2.5 mi ESE 9.2 mph - N/A Snow Light Snow
10:35 AM 32.0 °F 23.0 °F 30.9 °F 96% 29.77 in 2.5 mi ESE 11.5 mph - N/A Snow Light Snow
10:55 AM 32.2 °F 22.7 °F 31.5 °F 97% 29.76 in 3.0 mi ESE 12.7 mph 17.3 mph N/A Snow Light Snow
11:15 AM 32.9 °F 24.1 °F 31.6 °F 95% 29.75 in 3.0 mi ESE 11.5 mph - N/A Snow Light Snow
11:35 AM 32.9 °F 24.7 °F 32.0 °F 96% 29.74 in 2.5 mi ESE 10.4 mph - N/A Snow Light Snow
11:55 AM 33.6 °F 25.6 °F 32.2 °F 94% 29.73 in 2.5 mi SE 10.4 mph - N/A Snow Light Snow
12:15 PM 33.8 °F 25.8 °F 32.5 °F 95% 29.73 in 3.0 mi SE 10.4 mph - N/A Snow Light Snow
12:35 PM 34.7 °F 26.9 °F 32.9 °F 93% 29.72 in 4.0 mi SE 10.4 mph - N/A   Overcast
12:55 PM 35.2 °F 27.1 °F 33.1 °F 92% 29.71 in 5.0 mi SE 11.5 mph - N/A   Overcast
1:15 PM 35.8 °F 27.3 °F 33.4 °F 91% 29.70 in 5.0 mi ESE 12.7 mph - N/A   Overcast
1:35 PM 36.1 °F 29.3 °F 33.4 °F 90% 29.69 in 7.0 mi ESE 9.2 mph - N/A   Overcast
1:55 PM 35.6 °F 27.5 °F 32.9 °F 90% 29.68 in 7.0 mi ESE 11.5 mph - N/A   Overcast
2:15 PM 35.6 °F 28.0 °F 32.4 °F 88% 29.67 in 7.0 mi ESE 10.4 mph 17.3 mph N/A   Overcast
2:35 PM 35.2 °F 26.2 °F 32.4 °F 89% 29.67 in 7.0 mi ESE 13.8 mph - N/A   Overcast
2:55 PM 34.9 °F 27.1 °F 32.0 °F 89% 29.67 in 5.0 mi SE 10.4 mph - N/A   Overcast
3:15 PM 34.9 °F 26.6 °F 32.2 °F 90% 29.67 in 5.0 mi ESE 11.5 mph - N/A   Overcast
3:35 PM 34.9 °F 27.1 °F 32.0 °F 89% 29.67 in 5.0 mi ESE 10.4 mph - N/A   Overcast
3:55 PM 34.5 °F 26.2 °F 32.0 °F 90% 29.67 in 5.0 mi ESE 11.5 mph 18.4 mph N/A   Overcast
4:15 PM 34.2 °F 25.2 °F 32.0 °F 92% 29.67 in 3.0 mi ESE 12.7 mph - N/A Snow Light Snow
4:35 PM 33.6 °F 24.6 °F 32.2 °F 94% 29.66 in 2.5 mi ESE 12.7 mph - N/A Snow Light Snow
4:55 PM 33.4 °F 25.4 °F 32.4 °F 96% 29.66 in 2.5 mi ESE 10.4 mph - N/A Snow Light Snow
5:15 PM 33.1 °F 24.4 °F 32.9 °F 99% 29.66 in 1.2 mi ESE 11.5 mph - N/A Snow Light Snow
5:35 PM 32.9 °F 24.1 °F 32.9 °F 100% 29.66 in 1.0 mi ESE 11.5 mph - N/A Snow Snow
5:55 PM 32.9 °F 24.1 °F 32.9 °F 100% 29.65 in 0.8 mi ESE 11.5 mph - N/A Snow Snow
6:15 PM 32.9 °F 24.1 °F 32.9 °F 100% 29.65 in 1.0 mi ESE 11.5 mph - N/A Snow Light Snow
6:35 PM 33.1 °F 23.9 °F 33.1 °F 100% 29.65 in 1.5 mi ESE 12.7 mph - N/A Snow Light Snow
6:55 PM 33.1 °F 22.2 °F 33.1 °F 100% 29.64 in 1.8 mi ESE 17.3 mph 20.7 mph N/A Snow Light Snow
7:15 PM 33.3 °F 24.6 °F 33.3 °F 100% 29.65 in 1.8 mi ESE 11.5 mph 18.4 mph N/A Snow Light Snow
7:35 PM 33.4 °F 24.3 °F 33.1 °F 99% 29.64 in 4.0 mi ESE 12.7 mph 20.7 mph N/A Snow Light Snow
7:55 PM 33.8 °F 23.5 °F 33.3 °F 98% 29.65 in 4.0 mi ESE 16.1 mph 19.6 mph 0.01 in Snow Light Snow
8:15 PM 33.8 °F 25.3 °F 33.3 °F 98% 29.66 in 2.5 mi SE 11.5 mph - 0.02 in Snow Light Snow
8:35 PM 33.8 °F 25.8 °F 33.4 °F 99% 29.66 in 2.0 mi SE 10.4 mph - 0.04 in Snow Light Snow
8:55 PM 33.8 °F 25.3 °F 33.8 °F 100% 29.66 in 2.0 mi ESE 11.5 mph 17.3 mph 0.06 in Snow Light Snow
9:15 PM 33.8 °F 24.3 °F 33.8 °F 100% 29.66 in 2.5 mi ESE 13.8 mph - 0.01 in Snow Light Snow
9:35 PM 33.8 °F 22.8 °F 33.8 °F 100% 29.65 in 2.0 mi ESE 18.4 mph 21.9 mph 0.03 in Snow Light Snow
9:55 PM 33.8 °F 24.3 °F 33.8 °F 100% 29.64 in 2.5 mi ESE 13.8 mph 20.7 mph 0.04 in Snow Light Snow
10:15 PM 33.8 °F 24.8 °F 33.8 °F 100% 29.64 in 2.5 mi ESE 12.7 mph - 0.01 in Snow Light Snow
10:35 PM 33.6 °F 24.1 °F 33.6 °F 100% 29.64 in 2.5 mi ESE 13.8 mph - 0.01 in Snow Light Snow
10:55 PM 33.8 °F 24.3 °F 33.8 °F 100% 29.65 in 2.5 mi ESE 13.8 mph 18.4 mph 0.01 in Snow Light Snow
11:15 PM 33.8 °F 26.4 °F 33.8 °F 100% 29.65 in 3.0 mi SE 9.2 mph - N/A Snow Light Snow
11:35 PM 33.8 °F 24.8 °F 33.8 °F 100% 29.64 in 4.0 mi ESE 12.7 mph 18.4 mph 0.01 in Snow Light Snow
11:55 PM 33.8 °F 25.8 °F 33.8 °F 100% 29.64 in 3.0 mi ESE 10.4 mph - 0.01 in Snow Light Snow